Regional Weather Roundup
Issued by NWS Midland/Odessa, TX

Skip options and go directly to product.
Home | Oldest Version | Previous Version | Current Version | All | Graphics & Text | Save Text | Print | Product List | Glossary On

Skip product version selection by date and time.   
185
ASUS44 KMAF 231610
RWRMAF
MIDLAND AREA WEATHER ROUNDUP
NATIONAL WEATHER SERVICE MIDLAND TX
1100 AM CDT SAT MAY 23 2015

...IN SOUTHWEST TEXAS AND SOUTHEAST NEW MEXICO...

CITY           SKY/WX    TMP DP  RH WIND       PRES   REMARKS
ALPINE         PTSUNNY   74  47  38 S22G29    30.12F
ANDREWS        FAIR      73  63  71 S17G26    29.99S
ARTESIA        MOSUNNY   77  37  24 SW15G21   29.98S
BIG SPRING     PTSUNNY   79  67  66 S25G33    30.02S
CARLSBAD       SUNNY     80  40  23 VRB6      29.96S
DRYDEN           N/A     80  67  64 S10       30.00F
FORT STOCKTON  CLOUDY    73  56  54 SE13G21   30.00F
GUAD PASS      SUNNY     71  31  22 W24G31    30.08S
HOBBS          SUNNY     68  66  94 S10       30.01F
MARFA          MOSUNNY   72  48  43 S22G30    30.11F
MIDLAND AIRPK  PTSUNNY   79  65  62 S22G29    30.00S
MIDLAND INTL   PTSUNNY   78  63  59 S16G31    29.99S
ODESSA         PTSUNNY   75  62  64 S18G32    29.99F
PECOS          CLOUDY    73  62  66 CALM      29.95F
PRESIDIO       FAIR      82  50  32 MISG      29.99F
SEMINOLE       CLOUDY    70  63  79 S12       30.00S
SNYDER         CLOUDY    76  66  73 S21G26    29.99S
WINK           CLOUDY    75  59  57 S15       29.95F
$$
...OTHER STATIONS IN TEXAS...

CITY           SKY/WX    TMP DP  RH WIND       PRES   REMARKS
ABILENE        LGT RAIN  73  68  84 S13G22    30.02S
AMARILLO       CLOUDY    55  54  96 E15       30.02F
AUSTIN         CLOUDY    80  74  81 S14       30.08F
BROWNSVILLE    PTSUNNY   87  74  64 S17G26    30.06S
CORPUS CHRISTI PTSUNNY   84  74  71 S21G28    30.06F
DALLAS FTW     CLOUDY    71  70  96 SE15      30.08F FOG
DEL RIO        CLOUDY    76  72  87 SE14      30.01F
EL PASO        MOSUNNY   72  26  18 SW15      30.03S
HOUSTON INT    PTSUNNY   84  72  67 S13G23    30.12F
LUBBOCK        CLOUDY    72  64  76 S26G35    29.98F
SAN ANGELO     CLOUDY    75  68  78 S15G28    30.02S
SAN ANTONIO    PTSUNNY   80  72  76 SE15      30.08F
WACO           CLOUDY    75  72  90 SE14      30.09F
WICHITA FALLS  NOT AVBL
$$
...OTHER LOCATIONS IN NEW MEXICO...

CITY           SKY/WX    TMP DP  RH WIND       PRES   REMARKS
ALAMAGORDO     MOSUNNY   70  25  18 SW9       30.05S
ALBUQUERQUE    MOSUNNY   61  30  31 W7        30.05R
CANNON AFB     MOSUNNY   68  60  73 SW10      29.99F
CLOVIS         MOSUNNY   70  59  68 S13       29.98F
HOLLOMAN AFB   PTSUNNY   70  27  20 W13G21    30.03S
ROSWELL        PTSUNNY   71  56  58 S7        29.97S
RUIDOSO        SUNNY     59  25  27 SW21G30   30.13S
SANTA FE       SUNNY     60  31  33 SW9       30.04F
TRUTH OR CONSE SUNNY     66  26  22 S15G22    30.02F
TUCUMCARI      MOSUNNY   67  59  75 SE7       29.96F
$$

USA.gov is the U.S. government's official web portal to all federal, state and local government web resources and services.